Home   Weather   Spa   Past weeks
Flag for Belgium

Past Weather in Spa, Liège, Belgium — Yesterday and Last 2 Weeks

Now
41 °F

Passing clouds.


Feels Like: 37 °F
Forecast: 49 / 40 °F
Wind: 7 mph from Southwest

Location: Spa / La Sauveniere

Current Time: Dec 15, 2019 at 4:35:45 pm

Latest Report: Dec 15, 2019 at 3:00 pm


Visibility: 14 mi

Pressure: 29.68 "Hg

Humidity: 72%

Dew Point: 33 °F

Location of SpaLocation

Past Weather in Spa — Graph

°F

Spa Temperature Yesterday

Maximum temperature yesterday: 42 °F (at 6:00 am)
Minimum temperature yesterday: 35 °F (at 3:00 am)
Average temperature yesterday: 38 °F

High & Low Weather Summary for the Past Weeks

 TemperatureHumidityPressure
High47 °F (Dec 8, 2:00 pm)100% (Dec 3, 12:00 pm)30.43 "Hg (Dec 3, 12:00 pm)
Low26 °F (Dec 2, 4:00 am)52% (Dec 4, 9:00 pm)28.73 "Hg (Dec 13, 9:00 am)
Average37 °F84%29.87 "Hg
* Reported Nov 30 3:00 pm — Dec 15 3:00 pm, Spa. Weather by CustomWeather, © 2019

Note: Actual official high and low records may vary slightly from our data, if they occured in-between our weather recording intervals... More about our weather records

Spa Weather History for the Previous 24 Hours

Scroll right to see more
 ConditionsComfort  
Time TempWeatherWind HumidityBarometerVisibility
3:00 pm
Sun, Dec 15
41 °FPassing clouds.7 mph72%29.68 "Hg14 mi
2:00 pm41 °FSunny.7 mph74%29.66 "Hg16 mi
1:00 pm42 °FScattered clouds.7 mph73%29.64 "Hg14 mi
12:00 pm41 °FScattered clouds.7 mph78%29.63 "Hg16 mi
11:00 am41 °FScattered clouds.6 mph79%29.61 "Hg19 mi
10:00 am41 °FPartly sunny.6 mph84%29.57 "Hg22 mi
9:00 am41 °FOvercast.7 mph84%29.53 "Hg25 mi
8:00 am42 °FOvercast.7 mph85%29.47 "Hg31 mi
7:00 am46 °FLight rain. Low clouds.12 mph91%29.38 "Hg4 mi
6:00 am46 °FLow clouds.10 mph92%29.38 "Hg13 mi
5:00 am46 °FLight rain. Low clouds.9 mph93%29.35 "Hg7 mi
4:00 am46 °FFog.8 mph82%29.38 "Hg28 mi
3:00 am43 °FLow clouds.8 mph90%29.41 "Hg28 mi
2:00 am41 °FDrizzle. Low clouds.8 mph89%29.44 "Hg9 mi
1:00 am40 °FOvercast.7 mph89%29.47 "Hg12 mi
12:00 am39 °FClear.7 mph89%29.54 "Hg12 mi
11:00 pm
Sat, Dec 14
39 °FClear.6 mph82%29.56 "Hg11 mi
10:00 pm39 °FClear.6 mph88%29.58 "Hg10 mi
9:00 pm39 °FPassing clouds.6 mph86%29.58 "Hg8 mi
8:00 pm40 °FOvercast.7 mph85%29.57 "Hg9 mi
7:00 pm39 °FPassing clouds.6 mph87%29.54 "Hg8 mi
6:00 pm39 °FLow clouds.7 mph89%29.50 "Hg10 mi
5:00 pm40 °FLight rain. Low clouds.10 mph90%29.44 "Hg6 mi
4:00 pm40 °FDrizzle. Low clouds.12 mph92%29.41 "Hg5 mi
Weather by CustomWeather, © 2019

See weather overview

Advertising